Theta_e
341 344 348 350 351 351 351 352 352 352 352 353 353 353 352 351 350 350 351 352 351 350 350 350 349 349 348 348 348 348 348 348 348 347 346 346 346 346 346 346 346 346 346 347 348 348 348 349 349 348 348 348 348 351 352 352 351 350 348 346 347 347 350 350 356 355 354 354 354 353 353 353 353 354 353 353 351 354 353 353 352 349 349 351 354
342 344 345 346 352 353 351 352 351 351 352 352 353 352 352 352 350 350 350 351 352 350 349 350 349 349 349 348 348 347 347 347 346 345 345 345 345 346 346 346 346 346 346 346 346 346 347 347 348 349 349 348 348 351 351 351 351 350 347 347 346 349 348 349 354 353 352 352 352 354 353 353 353 353 354 353 353 354 353 352 351 348 347 352 354
339 345 343 346 348 351 353 352 351 351 352 352 351 351 351 351 351 351 351 351 351 351 350 349 349 349 348 348 348 347 347 346 346 346 345 345 344 344 344 345 345 345 346 346 345 345 345 345 348 348 348 348 349 351 350 350 350 350 349 348 346 349 348 353 353 352 352 352 351 351 350 351 353 353 353 353 353 353 352 351 351 350 348 353 353
337 338 343 344 345 347 350 351 353 353 354 353 352 351 351 351 351 351 351 351 352 351 350 349 348 349 349 348 347 347 348 347 346 345 346 346 346 345 345 344 344 345 346 346 347 346 345 345 346 346 347 351 352 351 351 350 350 349 347 347 347 349 348 352 352 351 351 351 349 348 346 348 349 353 353 353 352 353 349 351 350 351 353 353 352
337 336 339 344 344 344 349 350 351 351 353 352 351 351 351 351 351 351 351 351 351 350 350 350 349 348 347 347 348 347 347 347 346 346 346 345 346 345 347 345 345 345 346 347 347 347 345 345 346 346 346 350 353 351 351 350 349 348 347 346 347 347 348 352 351 351 350 349 348 347 346 348 348 351 353 353 352 351 349 351 352 352 352 352 351
336 337 336 341 345 344 346 349 350 351 351 351 351 351 351 351 351 351 351 351 350 350 350 350 349 349 348 348 347 347 347 346 346 346 345 346 346 346 346 345 345 345 346 346 346 346 346 345 345 346 346 349 352 351 350 350 349 349 347 347 346 347 346 351 351 350 349 347 346 345 346 347 348 349 352 352 352 350 351 352 353 351 352 351 351
334 338 338 337 344 345 343 348 350 351 351 351 351 351 351 351 351 350 350 350 350 350 350 350 349 348 348 348 348 347 347 346 345 345 346 345 345 346 346 345 345 345 346 346 345 345 345 346 346 346 346 348 352 351 350 350 349 348 348 346 346 347 347 349 350 349 347 346 345 345 345 348 348 347 351 351 352 352 353 352 351 351 351 350 351
326 339 337 335 339 343 343 348 349 350 351 351 351 352 351 352 352 350 349 349 349 349 349 349 348 348 348 348 348 347 346 346 345 345 345 345 345 346 346 346 346 346 347 347 347 345 344 345 345 346 346 347 352 351 350 350 348 348 348 346 345 347 347 348 349 347 346 346 345 343 343 345 347 348 351 352 352 353 352 351 351 350 350 350 347
320 326 333 334 338 342 344 347 349 349 350 351 351 351 351 352 351 351 350 349 349 349 349 348 349 349 348 347 347 347 347 347 345 345 345 344 345 345 346 347 347 347 348 348 348 347 346 346 346 346 346 347 351 351 349 349 348 348 348 347 346 345 347 347 347 344 344 344 345 341 341 343 346 347 350 352 353 352 351 350 350 351 350 349 347
318 321 329 333 340 339 343 346 348 349 349 350 350 350 350 351 350 351 350 349 349 348 348 348 348 348 347 347 347 347 347 346 345 345 345 344 344 347 347 347 346 347 347 348 349 349 348 347 346 346 347 347 351 350 349 348 348 348 348 346 344 345 347 347 346 343 345 342 343 340 341 343 346 347 349 352 353 352 351 346 345 344 346 347 346
321 322 325 335 337 339 343 343 344 345 347 348 349 349 349 349 350 350 349 348 348 348 348 348 348 347 348 347 347 346 346 346 346 347 347 347 347 347 347 347 347 347 347 348 349 349 349 348 347 347 347 347 350 349 349 348 347 348 346 346 345 345 345 346 343 343 343 341 340 339 341 343 342 344 350 349 352 351 348 345 344 344 347 348 349
326 324 326 331 335 336 340 341 341 343 344 345 347 348 348 349 349 349 349 348 348 348 348 348 347 349 349 347 346 347 346 346 346 347 347 347 347 346 346 346 346 346 346 347 349 349 349 349 348 347 347 348 349 349 348 348 347 348 346 346 345 344 344 343 341 342 340 338 338 339 339 340 339 345 351 350 349 350 346 345 347 348 349 349 349
327 326 326 330 332 334 337 338 339 340 342 344 346 347 348 348 348 348 349 349 348 347 347 346 347 347 347 346 347 346 345 345 345 345 346 346 347 347 346 346 346 346 346 346 346 347 348 349 349 348 347 349 349 348 348 348 347 347 346 346 344 344 342 341 342 341 339 337 337 338 339 338 339 344 351 351 349 350 348 348 349 349 349 349 348
324 327 327 329 330 334 333 335 336 337 339 342 344 345 346 347 348 348 348 348 348 347 347 347 347 347 346 346 346 346 347 346 346 346 346 347 347 346 346 346 346 346 346 345 346 347 347 350 348 348 346 349 348 348 348 348 347 347 346 345 344 343 340 338 338 337 337 336 337 340 340 338 339 346 350 349 349 349 349 349 349 348 348 348 347
323 326 328 327 328 329 330 332 334 336 336 338 340 342 344 345 346 347 347 347 347 347 347 346 347 347 347 347 346 346 347 347 347 346 345 347 347 347 346 346 346 345 345 346 346 347 348 350 349 346 346 347 348 347 347 346 347 346 345 344 344 341 338 341 339 339 337 337 339 339 339 339 345 350 350 348 349 348 349 349 348 347 347 348 347
325 325 326 326 327 327 328 329 331 333 333 335 336 337 339 342 344 345 346 346 347 347 347 347 346 347 347 346 346 346 347 345 344 342 344 345 346 346 345 344 345 344 344 344 346 346 346 347 348 347 346 346 347 347 345 345 344 344 344 343 341 338 335 334 336 338 337 337 337 339 338 341 346 350 349 347 348 350 347 348 347 347 347 347 348
323 323 321 321 323 324 324 327 328 328 329 330 331 333 335 338 339 342 343 345 345 346 346 346 346 346 346 346 345 345 343 341 341 342 341 345 346 345 344 344 344 344 344 345 345 345 345 345 347 346 345 344 343 346 345 344 343 343 341 340 338 337 333 331 336 336 336 336 338 338 341 343 344 350 349 349 348 349 347 345 345 347 346 345 343
313 314 313 314 314 315 318 324 326 328 329 329 327 328 331 334 336 338 338 340 342 344 344 344 344 344 343 342 341 340 339 339 340 342 344 344 344 344 344 344 344 344 344 344 344 344 344 345 345 345 344 344 343 346 345 343 343 341 339 338 336 334 331 329 334 337 338 337 338 339 340 340 343 349 349 348 346 346 346 346 344 347 345 344 344
311 312 311 311 311 312 313 315 320 324 326 328 328 329 329 329 332 333 334 336 338 339 340 341 340 339 339 338 337 335 334 335 337 339 341 340 338 337 339 343 343 343 343 343 343 344 344 344 345 344 344 345 344 345 344 343 341 339 339 336 334 330 328 328 331 335 338 336 338 338 340 341 344 348 347 347 347 347 345 343 344 346 345 345 344
309 308 309 309 310 310 311 312 313 316 320 323 326 328 328 328 329 331 332 333 334 335 336 337 334 331 331 331 330 331 330 331 329 333 332 336 335 332 333 340 342 342 342 342 343 343 344 344 344 343 344 344 344 343 341 341 340 338 336 334 330 325 329 331 330 330 335 336 338 338 339 341 345 348 347 347 346 347 345 342 344 345 344 344 344
307 306 307 306 308 309 310 310 311 312 315 319 324 327 330 328 329 327 327 328 330 331 332 330 326 325 325 325 324 330 336 336 334 332 327 331 327 326 330 337 340 340 340 341 341 342 342 343 344 343 343 343 340 337 335 338 338 337 334 331 324 326 327 330 330 329 333 334 336 337 338 341 345 347 345 344 345 346 345 343 344 344 343 344 343
302 303 305 305 306 308 309 310 310 311 312 316 321 326 328 329 329 330 331 329 327 326 327 329 326 331 327 329 332 333 334 336 336 330 333 331 329 325 326 332 337 337 337 339 340 340 341 343 343 343 342 340 335 337 333 330 333 333 329 323 322 324 326 330 329 330 334 333 333 335 338 341 345 346 345 344 343 343 344 345 344 343 343 343 343
301 302 303 304 305 305 308 308 310 310 311 312 317 321 323 325 327 328 329 328 329 328 329 329 330 332 332 334 333 335 335 335 334 332 333 327 331 326 326 329 333 334 334 335 336 338 339 341 342 341 340 336 334 335 334 334 330 323 320 322 325 326 328 332 332 332 333 333 334 333 337 342 345 347 345 346 343 342 344 344 342 342 342 343 343
301 301 302 304 304 304 306 307 309 311 311 311 313 315 319 322 323 325 326 327 328 331 332 332 332 332 332 333 334 335 336 335 327 324 324 332 330 324 325 326 327 328 327 328 330 333 337 338 338 337 335 332 334 334 333 333 330 327 326 325 326 328 330 333 333 332 332 332 334 332 337 343 345 346 346 345 345 344 343 342 340 342 342 343 342
301 301 301 302 303 303 305 305 307 310 311 312 312 312 314 318 321 322 323 324 325 327 328 330 332 333 333 333 334 334 334 334 334 331 329 332 331 329 327 328 329 329 322 328 330 331 330 331 333 333 334 334 332 332 332 331 329 327 327 327 327 329 331 331 331 331 332 332 331 331 335 341 344 344 342 346 344 343 343 343 343 342 341 340 340
300 300 301 302 303 303 303 302 304 308 308 310 313 313 313 314 316 319 321 323 324 325 326 327 329 331 333 333 333 333 333 333 331 331 331 332 331 330 330 330 330 331 329 329 329 329 330 330 331 334 332 331 331 330 331 330 329 328 327 328 329 330 330 330 330 332 333 331 329 329 333 338 343 343 342 344 343 343 343 343 342 341 340 341 340
297 298 300 300 301 302 303 301 302 303 304 307 309 312 313 314 315 317 318 320 322 323 324 325 326 328 330 332 332 332 332 331 330 330 331 332 331 331 331 331 331 331 330 330 329 329 330 328 327 326 329 329 329 329 329 329 329 328 327 328 329 330 329 328 330 331 331 330 326 326 330 334 341 342 342 344 345 345 343 341 340 340 339 339 339
296 298 299 299 300 300 302 302 302 302 303 305 305 308 310 313 314 315 317 318 320 321 323 324 325 326 327 329 331 331 331 331 330 329 329 330 329 330 330 330 330 330 330 330 328 327 328 325 324 324 325 328 327 327 328 327 326 327 326 326 327 329 329 329 329 329 329 330 329 325 328 332 335 339 340 342 343 344 343 341 341 340 340 339 338
295 297 298 299 300 302 301 301 302 302 302 303 303 305 306 308 312 314 315 316 317 319 321 322 323 324 326 327 329 330 330 329 328 328 328 329 329 328 329 330 330 329 328 328 327 326 326 324 323 322 321 322 324 327 326 325 325 325 325 325 326 327 327 327 328 328 328 328 328 325 326 330 335 337 339 342 344 343 342 341 341 339 338 338 338
294 296 296 297 298 300 301 300 301 302 302 301 301 302 303 305 307 310 313 314 316 318 319 320 322 324 325 326 328 329 329 328 328 327 327 326 327 327 328 328 329 329 328 326 325 325 324 323 322 321 320 320 320 321 324 323 324 325 325 325 324 326 326 326 327 327 327 327 325 324 323 326 331 336 337 337 339 341 340 341 341 341 339 338 338
294 294 295 296 297 297 298 299 300 301 301 300 299 300 301 303 305 306 309 313 315 316 318 319 321 322 324 326 326 328 328 328 327 326 325 325 325 326 327 327 328 328 327 326 325 324 323 322 321 320 320 320 319 319 322 323 323 324 323 323 323 325 325 325 325 325 325 325 324 324 323 322 327 330 333 337 337 337 338 340 341 339 339 337 336
293 294 295 296 296 296 297 297 299 300 300 300 299 299 299 301 303 304 305 307 310 314 316 317 318 320 322 324 325 326 327 327 327 326 326 326 325 325 326 326 327 327 327 325 324 323 323 322 321 320 321 321 321 321 319 321 322 322 323 322 321 322 323 324 323 322 323 323 323 323 324 324 322 327 328 334 337 337 339 338 337 337 338 338 336
294 294 295 295 295 296 297 297 298 298 298 299 299 299 299 300 301 302 302 304 304 309 313 316 317 319 321 322 323 324 324 326 326 325 323 325 325 325 324 324 326 327 326 325 325 323 322 321 320 320 320 319 319 319 320 318 319 320 321 321 322 321 321 321 321 321 321 321 322 322 323 323 323 319 322 326 333 335 337 336 335 336 336 336 336
293 293 294 295 297 298 298 298 298 297 297 297 298 298 298 299 300 300 300 301 303 304 306 309 312 316 318 320 322 323 323 325 325 325 325 324 324 324 322 324 325 326 326 325 324 323 321 320 319 318 316 318 317 317 319 319 318 317 318 318 321 321 321 320 320 320 320 320 320 322 321 321 322 322 323 321 323 328 333 334 335 335 335 334 335
294 293 293 294 295 295 297 296 297 296 296 296 296 297 298 298 298 298 299 300 302 302 302 303 305 309 313 317 320 321 321 323 324 324 324 324 324 323 323 324 325 326 325 325 324 323 321 319 319 319 317 318 317 317 318 319 319 318 316 318 318 319 320 319 319 319 319 319 319 320 321 321 321 320 321 321 317 320 327 332 333 333 332 333 333
293 293 293 294 293 294 295 295 295 295 295 296 296 296 297 297 298 299 298 299 299 299 300 301 302 304 307 311 315 318 320 322 322 323 324 323 322 323 323 324 324 324 325 324 324 323 321 319 319 320 317 317 317 316 316 317 317 318 317 316 317 317 318 317 317 317 319 320 320 319 319 320 320 320 316 320 320 319 321 326 330 331 332 332 332
293 293 292 292 293 294 294 294 294 294 295 295 295 295 296 296 297 297 297 297 297 297 299 300 301 301 303 306 312 317 319 320 321 322 322 322 322 322 323 323 324 324 324 323 324 323 321 319 317 319 319 318 317 316 315 315 315 315 316 316 316 316 316 316 317 317 317 319 319 319 319 319 318 314 320 319 320 321 319 323 326 327 326 329 331
292 292 292 292 292 293 293 293 294 294 294 294 295 295 295 295 296 296 297 296 296 297 297 299 300 300 301 304 310 313 313 317 319 320 321 322 323 323 323 324 323 323 323 323 323 323 322 319 317 318 319 318 317 316 315 315 315 314 315 315 315 315 315 315 315 313 317 317 318 319 319 319 319 319 318 318 319 320 322 321 321 320 318 324 330
292 291 292 292 292 292 293 293 293 293 293 293 294 294 294 294 295 295 296 296 296 296 297 298 300 300 300 302 305 308 312 315 317 318 318 320 321 321 322 323 322 323 323 321 321 321 320 319 317 317 317 318 317 317 316 315 314 314 314 315 315 315 314 313 313 315 316 317 318 318 319 319 319 319 318 318 319 320 321 321 321 321 321 321 328
290 290 291 291 291 292 292 293 293 293 293 293 293 293 293 293 292 293 294 295 295 296 297 297 299 299 299 301 304 308 308 309 312 315 317 318 320 322 321 322 322 322 321 320 319 319 318 318 317 316 315 314 316 317 316 314 313 313 312 314 314 314 312 311 313 314 314 315 317 317 318 318 319 318 318 318 319 319 319 318 317 320 321 321 323
289 290 290 290 290 291 291 291 292 293 292 292 292 292 291 291 292 292 292 293 295 296 296 297 298 299 300 301 303 302 303 306 310 313 314 314 317 320 321 321 321 320 320 320 320 320 319 318 317 315 314 314 315 316 316 315 313 309 309 308 308 309 309 310 311 312 313 314 314 317 317 318 319 318 318 317 318 318 317 317 317 318 319 321 320
288 289 289 290 290 290 290 291 292 292 292 292 292 292 292 292 291 291 292 292 293 294 294 295 296 299 300 301 299 299 302 304 306 310 311 313 314 316 319 320 320 320 320 320 320 316 318 318 317 315 315 314 314 316 315 314 310 307 305 303 304 306 306 308 309 310 310 311 313 316 316 317 318 318 317 318 317 316 316 316 317 317 318 318 318
288 289 289 289 290 290 290 291 291 291 291 292 292 292 292 293 292 292 292 292 294 295 295 296 296 297 299 299 299 300 301 301 304 307 310 312 313 314 316 319 318 318 318 319 319 318 318 317 317 315 313 314 313 315 315 315 310 310 308 305 302 302 301 303 303 304 306 308 309 315 315 316 317 317 316 317 317 316 315 316 316 316 315 315 316
288 288 288 289 290 290 290 290 291 291 291 291 292 292 292 293 293 293 293 293 292 294 295 296 296 296 296 298 298 299 300 301 303 305 308 310 311 312 314 318 318 320 319 318 318 318 317 317 316 315 314 311 310 312 315 315 313 309 304 306 304 304 299 300 301 300 301 305 309 313 314 316 315 315 315 316 316 315 315 315 316 316 315 315 315
288 288 289 289 290 290 290 290 291 291 291 292 291 292 292 292 292 292 293 292 292 292 292 292 294 294 295 296 297 299 300 300 302 303 305 307 309 310 311 314 318 319 319 318 318 318 318 318 316 315 314 312 310 311 312 313 313 314 309 301 297 296 300 302 301 298 299 303 305 307 309 313 314 314 314 315 315 315 314 314 314 315 315 315 315
287 288 289 289 290 290 290 290 291 291 291 291 291 291 291 290 290 289 288 288 288 289 289 289 291 292 293 295 297 298 299 300 301 302 305 306 307 308 308 309 315 317 317 318 318 319 318 317 316 315 314 314 312 311 310 311 313 312 311 310 307 300 299 299 303 297 296 298 298 302 306 310 313 312 314 314 314 313 313 314 314 314 315 315 315
287 289 289 289 290 290 290 290 290 290 291 291 291 291 290 290 289 289 288 288 288 290 291 291 292 293 294 294 296 297 299 299 300 302 304 305 305 306 306 307 309 315 315 317 317 317 318 318 317 316 315 313 312 310 310 309 310 311 309 307 303 301 305 302 299 298 294 296 298 299 301 303 308 312 312 314 313 313 314 313 314 315 315 315 315
288 289 289 289 289 289 289 290 290 290 290 291 290 290 289 289 288 288 288 288 288 289 290 291 292 293 293 294 295 296 297 298 299 301 302 303 303 304 305 305 306 307 313 316 317 318 317 318 316 316 316 313 313 311 310 310 308 308 309 305 303 303 305 306 305 302 301 297 296 296 298 300 302 310 312 312 313 313 313 313 314 315 315 315 315
288 288 289 289 289 289 289 289 289 289 289 290 290 289 289 289 288 288 287 288 289 289 290 291 291 292 292 293 294 295 296 297 299 299 300 301 301 303 304 304 304 304 304 313 317 318 317 316 316 315 314 313 313 312 312 310 310 309 306 302 304 303 304 300 298 299 302 299 297 298 297 297 299 301 307 309 312 313 313 314 314 313 313 314 314
288 289 289 289 289 288 288 288 288 288 289 289 289 288 286 285 284 284 283 284 286 288 289 289 290 291 290 291 293 294 295 296 297 298 298 300 301 302 303 303 303 303 302 307 315 317 317 317 316 316 314 312 312 311 311 311 311 310 309 307 304 303 302 299 296 300 300 303 298 296 297 298 298 296 296 303 306 310 312 313 312 313 313 314 313
288 288 288 288 288 288 287 287 287 287 288 287 286 284 284 283 282 282 282 282 283 284 285 287 289 290 290 291 292 294 294 294 295 296 297 299 300 301 302 302 302 301 302 304 310 316 317 316 316 316 314 312 311 311 310 312 311 310 308 307 306 305 302 301 301 301 301 294 294 298 298 300 301 296 295 297 304 306 309 310 311 311 312 312 312
Wind_Speed
1 1 3 6 6 6 9 10 10 10 9 9 9 10 9 10 10 9 8 9 9 11 11 10 10 10 10 10 9 9 8 7 7 7 7 7 7 7 8 7 7 7 7 7 7 7 8 8 8 9 8 7 6 4 7 9 11 11 11 7 12 12 13 6 7 8 9 9 9 10 9 10 11 13 14 14 12 11 9 8 7 7 6 11 16
3 0 1 4 7 4 7 9 10 8 8 9 9 9 9 10 10 9 8 9 10 10 11 11 11 11 11 11 11 10 9 9 9 9 9 8 9 8 8 9 9 9 9 9 9 9 9 9 9 10 9 8 6 6 6 9 11 11 12 14 11 12 10 11 6 7 10 9 8 7 6 9 11 13 14 15 13 10 7 6 9 6 5 14 16
3 1 1 6 7 4 3 7 8 8 8 8 8 7 8 10 10 10 9 11 11 11 12 12 12 12 12 11 11 11 10 10 10 10 11 11 11 10 11 11 11 11 11 11 11 11 10 10 10 10 10 8 7 7 8 9 10 12 13 14 16 11 11 9 6 8 10 11 10 7 7 7 10 12 15 15 13 9 5 7 9 8 8 17 14
2 3 2 6 7 6 1 1 4 5 6 7 7 7 7 8 9 10 11 12 12 12 11 12 13 13 13 12 11 11 11 11 11 11 12 12 12 12 11 11 12 13 12 12 12 12 11 11 11 11 10 7 5 9 10 10 10 11 11 11 9 12 13 10 7 9 9 9 13 9 4 4 6 11 15 15 12 7 2 8 10 11 17 16 17
1 2 1 5 5 5 4 1 1 2 2 4 6 8 8 9 9 10 11 11 12 12 12 13 12 11 12 12 12 11 11 11 11 11 12 13 14 13 10 10 13 14 14 14 13 12 12 12 12 12 11 8 6 11 11 11 11 12 12 13 15 11 15 11 10 9 9 8 12 11 5 5 3 9 15 16 11 5 3 9 12 16 16 17 18
3 2 4 2 5 5 6 3 3 1 5 7 8 8 10 9 10 11 11 11 11 12 12 12 12 11 12 11 13 12 12 12 11 12 12 13 14 14 12 13 14 15 16 15 15 14 13 13 13 12 12 9 7 12 13 12 12 13 14 13 13 14 14 11 11 9 10 10 9 6 8 7 5 5 16 15 8 5 8 11 13 16 16 18 17
4 3 3 6 1 7 9 6 5 4 4 8 9 9 10 11 11 12 12 12 12 12 12 12 13 11 12 12 13 13 14 14 14 13 14 13 14 14 13 13 14 14 15 15 15 14 14 13 13 12 12 10 9 11 13 14 14 15 15 15 17 14 13 11 10 10 10 8 4 4 6 8 6 3 14 14 9 10 14 15 15 17 17 18 17
5 1 1 3 4 5 9 8 8 5 5 7 8 8 9 10 10 12 12 12 13 13 13 13 13 12 13 12 14 14 14 15 14 14 12 13 14 14 13 14 14 14 14 15 15 14 14 14 13 13 13 11 11 12 13 14 14 16 18 19 17 14 14 10 8 10 11 7 4 4 5 5 7 5 13 13 12 16 17 17 15 16 17 16 12
7 4 0 2 4 5 8 7 7 7 7 7 7 7 9 9 9 10 12 13 13 13 13 13 13 12 13 13 13 14 14 14 15 14 12 13 13 14 14 14 14 14 14 15 14 14 14 14 14 14 13 12 11 13 13 13 14 16 19 18 16 16 15 10 11 10 8 5 4 4 5 4 5 4 12 14 14 18 17 15 14 17 18 13 12
6 7 3 4 6 8 5 1 4 7 7 8 8 6 6 10 11 11 13 14 14 13 13 13 13 13 14 14 13 13 14 14 14 13 12 12 11 8 6 8 11 14 15 14 15 16 15 14 13 14 14 13 11 13 14 14 16 17 18 19 20 19 16 14 13 10 7 5 5 4 4 6 6 6 10 17 17 18 15 12 8 9 8 12 11
10 10 7 6 6 7 6 4 6 6 7 8 9 9 8 7 9 12 13 13 14 14 14 14 13 13 14 14 13 14 14 14 14 11 10 5 6 8 10 10 9 11 12 14 15 16 16 16 14 14 15 14 11 13 14 15 17 16 18 19 19 16 18 14 11 6 6 5 5 5 7 10 3 4 14 16 19 19 14 13 11 10 13 14 14
7 7 7 6 6 5 3 2 1 4 7 9 9 10 11 8 7 9 11 13 14 14 14 13 13 12 13 14 14 14 14 13 13 11 6 7 8 9 10 10 11 11 12 13 14 15 16 16 16 15 13 13 10 13 15 17 18 18 19 17 17 15 16 12 8 5 4 5 4 6 8 8 5 6 16 16 17 20 12 12 15 17 16 16 19
7 7 8 7 6 6 3 2 3 6 7 8 11 12 12 13 12 10 10 11 13 13 14 13 12 13 14 13 13 14 15 13 13 12 11 11 11 10 10 11 12 13 13 14 15 15 16 16 17 16 15 10 11 13 16 18 19 19 20 17 20 18 12 11 7 7 7 3 3 4 5 7 7 9 17 19 20 19 16 16 17 18 18 19 19
6 6 5 5 5 8 5 3 4 6 8 10 10 10 12 13 13 13 13 11 11 11 12 13 13 13 13 14 14 14 12 12 11 12 14 14 12 12 11 12 13 14 14 15 15 16 16 17 16 17 16 10 12 14 16 17 19 19 18 20 20 20 20 16 9 5 5 4 2 4 4 5 5 13 19 21 20 19 16 17 17 19 19 20 19
6 7 6 5 5 5 9 6 6 6 7 9 10 11 10 12 14 13 13 14 13 12 13 12 11 11 12 12 14 14 13 13 13 14 14 13 12 12 12 12 13 14 14 14 14 14 15 15 14 14 14 13 14 15 16 17 18 19 18 20 19 20 16 10 6 6 5 5 2 4 4 3 8 16 19 20 20 19 18 18 18 20 20 19 20
6 6 6 5 5 5 4 7 7 8 8 8 10 10 12 13 12 12 14 14 14 14 11 10 11 11 11 12 13 13 14 11 10 15 14 14 12 12 13 14 13 14 14 14 13 14 14 14 13 12 12 12 14 15 16 18 19 17 18 19 18 19 17 11 6 4 5 5 3 3 3 3 11 14 17 20 21 19 18 19 20 21 18 17 19
10 10 10 11 10 8 7 5 7 9 7 10 10 10 11 12 15 14 13 13 13 13 11 11 11 12 12 12 12 12 11 13 15 16 17 13 12 12 13 13 13 13 13 14 14 14 13 14 12 10 11 12 14 15 16 19 20 18 18 20 18 18 16 11 6 5 3 3 4 4 4 6 8 12 19 20 19 19 17 19 22 22 20 19 17
11 12 13 13 12 13 12 8 7 5 5 5 9 12 12 11 12 13 13 14 14 14 14 13 11 12 11 11 11 12 13 14 17 18 15 13 12 12 12 13 14 13 13 13 13 13 13 13 12 10 10 11 16 16 19 18 19 18 19 18 16 15 13 10 6 6 7 6 6 6 6 9 14 13 17 18 19 20 19 18 21 21 21 22 22
9 10 10 12 12 12 12 12 10 8 7 6 6 7 10 12 13 14 14 14 14 14 14 13 13 12 12 12 11 11 13 14 15 14 14 13 11 11 11 13 14 14 13 13 13 13 12 12 12 11 10 12 17 17 19 19 19 18 19 18 18 16 15 7 6 6 6 5 5 6 7 15 14 17 21 21 21 20 20 20 21 21 23 23 23
9 10 10 12 11 11 12 11 12 13 11 10 8 6 9 11 10 13 13 14 15 15 15 14 13 13 13 12 12 11 10 11 15 12 13 13 12 10 10 14 15 14 13 13 12 12 12 12 12 12 12 15 16 17 18 19 18 17 18 18 18 17 11 7 7 6 4 5 6 7 11 15 16 18 21 21 23 22 21 22 22 22 24 24 24
7 9 9 11 12 12 14 10 11 12 12 11 9 8 6 9 9 9 13 14 14 15 15 14 11 11 12 11 11 10 8 7 9 9 12 11 11 13 13 13 13 13 12 13 13 12 11 12 12 12 14 16 16 17 17 18 17 19 20 21 19 12 8 8 8 6 4 5 5 6 14 17 18 17 17 19 23 23 24 23 23 23 24 23 24
9 9 9 12 11 11 13 13 10 12 13 10 7 7 7 8 6 7 5 8 11 13 11 10 10 9 12 11 8 8 8 8 8 9 9 10 11 14 14 14 14 13 12 12 12 11 10 11 12 12 14 15 16 10 11 13 19 20 19 18 13 9 7 7 5 6 4 4 5 8 16 17 17 18 20 21 18 22 20 23 25 25 27 26 25
11 10 10 12 12 11 12 14 13 13 13 12 8 8 9 8 7 7 6 8 7 9 8 9 9 9 9 9 8 8 8 8 8 8 8 13 13 14 15 15 14 14 13 12 11 9 10 11 12 12 13 14 10 7 8 8 8 17 15 12 8 8 8 8 7 6 6 6 5 11 14 16 18 21 21 22 24 20 23 23 22 26 26 25 26
10 9 9 9 13 12 12 13 12 13 13 11 10 9 8 8 8 8 8 7 7 6 6 8 8 8 9 9 8 9 9 8 10 15 12 9 10 15 17 17 15 12 13 8 8 8 11 10 10 11 10 7 8 8 8 9 8 8 7 7 6 5 8 8 6 6 7 6 6 14 15 17 18 22 23 23 24 24 24 24 23 24 23 25 27
7 7 7 9 11 12 11 12 13 11 13 12 11 10 10 9 7 7 7 7 7 7 8 6 6 8 9 8 9 8 8 8 8 7 7 7 7 7 8 8 7 8 9 6 6 6 7 6 5 8 6 7 7 8 9 9 9 10 10 6 7 7 6 5 6 7 6 6 7 14 15 18 23 21 22 24 25 24 25 26 26 25 24 23 28
9 9 10 11 12 13 11 12 12 11 13 11 11 10 11 9 10 10 9 7 7 7 6 7 8 7 7 8 8 9 8 9 8 7 7 8 7 7 8 7 7 8 8 7 7 6 6 6 6 6 6 5 9 8 10 10 11 11 10 12 11 9 7 5 5 7 7 7 9 13 13 17 19 23 25 25 26 27 25 26 28 29 28 26 26
8 9 9 11 12 13 12 14 12 12 13 13 11 10 9 8 9 10 11 9 8 8 7 8 8 10 9 8 8 8 8 8 9 9 8 7 8 7 8 8 8 8 7 8 7 7 6 5 6 5 6 6 7 10 9 10 11 11 10 10 7 8 6 5 6 7 8 8 9 15 12 13 17 22 23 24 26 26 27 27 28 28 27 29 28
7 8 8 9 11 12 13 13 11 12 12 12 12 11 10 10 9 8 9 10 11 10 9 8 8 9 11 10 9 8 8 8 9 10 8 6 7 7 7 8 8 8 7 8 7 6 5 5 6 6 7 7 8 8 10 9 8 9 12 9 7 8 8 7 5 7 8 8 9 14 15 14 15 16 24 28 30 30 28 28 28 29 28 29 29
10 10 9 9 10 10 11 13 12 12 12 13 11 10 10 11 10 9 8 9 9 9 10 10 9 9 10 11 10 9 8 7 9 8 7 8 8 8 8 9 8 8 6 6 7 7 6 6 7 8 6 6 5 10 11 10 8 8 7 8 9 8 7 6 8 9 7 6 6 9 14 14 14 16 20 23 29 29 29 27 25 25 25 26 27
9 8 9 8 9 11 10 11 12 11 11 11 10 10 11 10 11 11 10 9 8 9 9 9 9 10 10 10 11 9 9 9 8 7 6 4 5 7 11 8 9 8 7 7 7 8 7 6 7 7 8 6 7 4 11 12 12 11 9 10 8 7 7 7 8 9 9 7 6 6 12 11 13 14 20 20 22 27 31 29 28 26 26 24 26
7 8 8 9 9 10 10 11 10 9 8 9 9 11 11 11 11 11 11 10 10 10 9 9 10 10 10 11 11 11 9 9 9 10 9 8 9 9 11 8 8 9 7 8 7 8 8 8 9 9 9 8 7 5 5 13 12 12 12 9 7 8 8 7 7 7 8 7 6 7 7 12 11 9 10 21 25 24 27 29 28 29 27 25 24
10 9 9 8 11 12 12 13 13 13 13 13 11 11 11 10 11 10 11 12 13 11 10 9 9 10 10 11 11 11 10 10 10 9 8 8 8 10 13 10 8 8 8 9 8 8 9 8 7 7 8 8 8 7 2 6 13 11 13 10 7 8 8 8 7 7 7 7 7 6 7 8 11 15 10 14 20 22 24 26 25 26 28 29 29
6 7 10 10 11 11 11 12 12 12 12 13 11 11 11 11 10 10 10 11 11 12 11 11 11 11 11 12 12 13 11 10 11 11 10 9 8 8 8 9 8 8 8 10 10 8 8 7 7 6 7 7 8 7 10 2 4 10 10 11 9 9 8 7 7 8 7 5 6 5 5 6 7 10 10 8 14 15 20 25 25 26 28 28 27
8 6 8 11 9 7 8 9 11 13 13 11 11 10 11 10 10 9 10 11 10 10 12 12 13 12 11 12 12 12 12 11 11 11 10 9 10 12 10 8 7 7 8 10 10 9 9 9 8 7 6 9 9 9 10 11 4 4 5 5 7 10 9 7 6 7 6 6 5 6 5 5 6 6 6 9 8 9 10 13 15 23 24 24 25
8 8 10 11 11 9 9 9 12 13 12 12 13 12 11 10 10 10 10 10 10 10 10 11 12 12 13 12 13 13 13 13 13 12 11 10 9 10 11 10 8 9 8 9 10 9 9 10 9 9 9 10 10 9 8 11 15 11 3 5 4 8 10 9 8 6 6 6 5 6 6 5 6 5 4 4 5 8 9 12 14 16 20 23 25
9 8 8 10 12 10 11 11 12 14 13 14 14 14 13 11 9 9 10 9 9 10 11 11 11 11 12 12 14 14 13 14 14 13 13 11 10 10 10 8 9 9 9 10 10 11 9 10 10 10 10 9 9 8 5 7 7 15 14 5 4 6 8 9 9 7 7 7 6 5 4 5 5 8 5 5 5 6 13 14 15 14 19 22 24
8 9 10 12 13 11 11 13 14 15 14 15 15 14 14 13 12 10 10 9 9 10 10 10 11 11 11 12 12 12 13 15 15 14 14 14 11 12 11 11 10 10 9 10 11 11 11 11 10 10 10 14 13 12 9 7 8 6 11 13 8 7 6 7 9 9 6 7 8 8 7 6 5 6 6 5 5 6 12 17 16 15 17 18 21
5 7 7 10 11 8 8 9 11 11 11 11 12 14 14 14 12 11 10 9 9 9 9 10 11 10 11 11 12 13 13 15 15 14 14 14 13 13 12 12 11 11 9 10 10 11 12 13 13 11 10 10 11 13 12 9 9 9 8 9 10 8 7 8 8 7 8 7 7 8 7 7 7 7 5 5 5 5 7 13 17 15 17 18 21
5 6 7 8 8 7 7 9 10 11 12 13 13 13 13 13 13 12 10 9 8 8 10 10 9 10 10 12 13 12 12 14 15 15 13 13 13 12 11 12 10 11 11 11 10 12 13 12 15 13 10 10 13 13 12 11 11 9 10 9 8 8 7 7 7 7 7 6 7 7 6 7 8 7 6 6 5 7 8 6 9 8 11 18 20
6 8 11 11 10 10 9 10 9 11 11 12 12 12 12 12 13 13 12 11 9 9 9 10 9 9 11 12 12 10 11 13 15 14 14 13 14 12 12 13 12 11 13 13 12 12 14 16 16 16 13 8 7 9 9 9 7 7 8 7 5 6 7 7 7 8 6 6 7 6 7 6 8 7 7 6 7 8 8 7 7 9 9 13 17
6 7 10 9 10 12 13 14 11 12 11 13 12 13 13 13 12 13 14 13 11 11 10 9 9 9 11 12 10 9 11 12 12 13 13 14 13 14 13 12 10 11 12 15 16 16 15 16 16 14 17 14 12 10 11 12 13 9 8 8 7 4 5 6 7 7 7 6 5 8 7 8 8 8 6 7 7 8 8 9 7 7 9 9 12
7 8 9 9 10 12 12 13 13 13 14 14 14 13 12 12 13 14 14 14 14 13 12 9 10 10 12 11 8 9 11 11 11 12 13 12 13 13 13 13 11 12 14 13 15 15 17 16 15 13 13 17 14 15 13 13 12 14 13 7 6 6 5 5 5 5 5 5 6 8 8 9 9 8 8 8 8 8 8 8 8 7 8 9 9
8 9 8 11 12 12 12 13 13 14 14 15 15 14 14 14 13 14 15 15 14 13 12 12 12 11 11 10 8 9 10 10 11 12 11 12 12 13 13 13 13 12 11 15 15 17 17 18 18 17 13 9 8 13 17 16 14 12 11 12 9 8 2 3 2 3 1 3 4 8 9 9 10 9 8 9 9 8 7 9 8 8 6 8 8
9 9 9 11 10 11 13 14 14 13 14 15 16 17 17 17 16 15 15 15 16 15 15 14 12 11 11 8 8 8 9 11 11 12 11 11 11 12 14 12 14 16 12 11 14 17 16 16 18 17 18 15 10 11 15 13 12 16 14 11 8 9 8 6 6 2 1 1 5 7 8 10 9 10 7 10 10 8 8 8 11 9 8 8 7
10 10 11 12 11 14 15 14 14 16 16 17 19 18 16 15 14 15 14 15 14 12 12 13 12 10 10 9 9 8 9 10 10 11 12 11 11 10 12 15 13 11 12 14 16 17 17 18 19 18 19 18 16 13 13 11 13 15 16 10 5 5 12 9 8 2 2 2 1 3 6 9 10 10 8 8 10 10 9 9 9 9 10 9 9
10 10 11 13 14 15 14 15 17 18 18 18 19 16 15 15 15 15 17 15 15 13 12 13 13 14 13 11 9 8 8 9 9 10 11 10 11 10 11 14 15 12 10 11 11 15 18 17 19 19 21 19 19 16 15 12 15 13 12 17 20 17 13 9 14 8 0 2 0 1 5 6 9 10 9 8 10 9 9 10 9 10 10 9 10
11 10 11 13 14 13 15 18 17 17 17 17 17 16 15 14 17 17 17 18 17 14 11 12 13 13 11 12 11 10 8 8 9 9 9 11 11 11 10 11 13 14 12 12 12 12 15 19 19 18 18 17 16 18 21 16 11 12 10 5 4 3 11 19 14 8 6 1 1 2 3 4 8 12 10 13 11 11 9 9 11 11 10 9 10
12 12 13 12 14 18 18 18 17 19 18 17 16 16 17 15 16 18 17 17 17 18 17 14 13 13 14 14 11 10 8 6 8 8 9 9 11 12 11 11 11 12 14 12 13 13 12 14 17 19 17 16 19 19 20 18 18 16 12 5 3 5 11 15 22 20 17 14 6 2 0 2 4 10 12 12 13 13 12 9 10 10 9 9 10
13 14 14 14 15 16 18 19 20 20 19 19 17 17 18 17 17 17 18 15 15 16 16 15 14 13 14 14 12 10 8 6 6 7 8 9 10 11 11 10 11 13 12 15 16 17 18 15 16 16 17 16 18 18 19 19 18 18 13 5 7 8 12 5 5 9 16 15 10 12 8 2 1 4 9 9 11 12 13 12 10 10 10 10 10
12 13 15 15 16 17 19 21 22 20 20 19 17 16 17 17 18 20 23 22 19 18 16 17 16 14 15 16 15 12 9 7 5 5 7 8 9 10 9 9 9 11 12 17 17 17 19 18 19 18 18 19 14 15 19 19 18 16 16 14 12 10 10 5 5 8 7 17 19 12 12 13 11 3 2 7 8 9 11 12 11 11 10 10 10
12 13 14 17 17 17 18 21 24 22 19 16 16 19 18 15 16 21 23 24 24 22 21 21 16 14 13 14 13 11 8 7 5 5 5 7 8 8 9 8 7 8 10 15 18 15 17 19 18 18 19 19 16 16 16 18 17 15 15 14 16 19 18 17 15 12 14 6 4 12 11 9 10 10 3 2 10 9 10 10 11 10 11 10 10
Wind_Direction
325 323 76 122 135 163 177 176 173 176 189 195 195 194 200 209 206 212 220 231 234 233 222 224 225 225 230 231 233 232 230 230 231 232 236 244 248 252 253 253 250 244 241 240 241 240 239 239 247 251 255 260 260 196 194 193 200 199 193 206 225 226 231 191 176 143 128 127 135 132 136 137 134 130 136 143 135 125 127 124 105 104 113 123 123
304 205 108 124 119 146 177 177 174 181 192 199 199 203 201 211 214 216 220 229 237 234 235 228 224 226 224 230 233 234 236 240 247 252 256 258 258 258 260 267 268 265 258 253 248 247 244 241 243 249 251 247 246 179 208 206 201 197 180 203 225 222 202 191 188 153 132 129 122 115 119 131 135 136 137 136 135 129 129 119 111 114 123 129 125
331 93 102 126 127 117 185 179 183 188 202 206 212 213 215 216 218 222 222 233 237 235 236 235 230 230 231 229 228 232 236 240 241 249 254 255 256 259 263 261 264 270 269 263 257 252 249 245 242 244 248 244 244 185 197 208 201 199 185 187 208 215 201 186 191 151 143 136 115 107 114 123 136 140 138 136 137 134 125 127 125 125 132 129 128
7 325 94 129 138 153 114 264 213 214 204 213 207 215 221 223 222 228 228 232 235 233 238 246 245 232 231 234 233 233 231 240 247 256 258 259 259 255 244 252 262 263 264 263 262 258 253 249 245 243 242 239 230 178 186 205 203 186 186 191 217 217 196 176 186 156 149 147 127 118 122 112 131 145 143 142 140 121 95 131 131 132 131 130 131
349 311 68 134 149 169 177 191 348 282 218 213 222 220 221 223 228 230 233 237 236 233 239 238 243 252 252 243 239 241 243 244 252 256 260 259 259 261 254 248 257 260 260 262 260 259 256 254 249 244 241 235 215 175 181 195 197 193 188 175 204 210 200 170 176 164 154 152 135 130 138 127 133 155 148 145 138 105 123 131 137 137 133 131 129
334 340 331 138 154 160 181 191 210 245 230 220 229 229 229 228 228 228 233 237 236 239 239 240 239 240 239 243 252 246 247 253 253 252 262 261 265 265 264 264 260 258 261 263 263 260 256 253 251 246 243 237 213 177 181 189 190 196 188 179 201 204 200 178 170 168 156 154 144 140 142 140 142 164 155 148 131 116 143 140 140 136 135 133 130
322 31 359 333 130 158 178 188 210 225 245 233 230 236 237 237 239 237 237 237 238 241 244 242 243 235 242 239 244 246 247 250 256 253 255 260 260 262 263 261 260 259 263 265 265 263 260 254 250 248 246 240 194 177 182 183 189 192 182 172 196 200 196 187 169 167 161 156 173 145 143 138 143 162 163 151 133 141 145 146 144 140 138 137 131
322 92 342 311 334 137 170 184 200 220 240 244 249 250 248 247 245 247 245 242 241 242 243 244 244 241 239 240 242 250 254 258 259 261 262 266 263 259 256 257 254 254 256 262 263 263 261 258 252 248 246 244 186 179 184 189 196 194 186 176 194 193 192 197 169 172 165 172 174 141 136 134 146 157 171 155 145 150 151 150 146 144 139 135 131
334 326 60 10 32 106 162 187 206 211 221 239 254 281 268 258 258 258 253 250 246 246 250 248 246 244 246 247 250 253 257 258 257 259 258 259 263 260 253 250 252 255 259 259 263 263 261 259 256 250 246 241 186 184 184 194 198 196 191 186 188 196 191 185 183 190 175 179 178 138 137 141 140 158 175 161 155 155 155 152 149 148 142 134 140
338 332 10 44 75 54 39 21 227 235 238 236 237 253 279 272 259 256 256 253 249 251 254 254 255 255 253 252 253 257 254 253 258 258 255 254 257 272 284 278 266 259 256 260 263 265 262 259 257 254 250 246 186 188 193 200 202 193 190 171 186 199 192 188 179 189 187 183 181 153 146 151 167 164 184 170 164 158 156 146 148 147 138 141 142
359 351 350 48 71 67 62 30 354 327 291 268 257 256 256 259 270 266 261 258 256 254 255 256 258 259 260 259 258 255 255 258 258 258 255 223 227 249 264 267 270 269 269 268 265 267 269 264 254 252 253 249 185 190 196 201 201 189 178 171 178 195 199 180 179 187 199 193 193 161 159 165 168 156 184 181 169 164 154 150 148 149 148 147 148
359 344 351 9 16 61 55 76 259 277 282 285 281 266 261 259 258 265 270 270 265 261 256 254 255 259 262 261 258 263 260 258 260 255 245 239 237 240 250 259 264 267 266 269 276 274 272 273 267 256 247 251 186 195 197 202 198 191 181 177 172 184 193 178 170 193 217 217 205 167 153 164 180 184 183 181 183 162 147 152 154 156 156 152 151
358 2 347 355 349 41 10 329 299 277 269 267 268 266 270 265 262 264 261 259 265 268 266 263 266 263 266 264 266 267 266 259 253 258 245 238 238 236 242 249 254 258 259 262 270 274 274 273 273 261 252 233 187 195 202 202 198 190 186 176 175 178 191 201 191 183 209 243 211 176 158 168 174 194 182 181 190 164 161 159 161 159 162 156 151
358 356 347 340 336 330 325 304 284 287 283 281 277 275 268 265 268 267 264 262 257 251 261 263 256 260 259 261 262 262 264 260 248 241 237 233 229 236 238 246 251 254 256 258 262 269 275 278 277 274 258 226 193 197 203 203 199 188 178 175 177 179 185 190 188 192 198 249 221 179 172 182 176 180 188 187 178 170 164 163 165 163 160 157 153
0 345 342 337 332 330 328 294 283 272 275 280 283 284 277 274 268 265 268 269 264 255 246 250 257 261 262 257 256 259 258 247 233 236 233 230 231 235 240 245 252 258 258 257 260 269 274 277 276 272 263 247 190 202 206 204 198 183 170 172 175 177 179 181 186 175 189 227 196 182 176 171 163 181 184 182 177 173 171 167 170 165 160 154 152
359 343 337 333 330 324 317 316 291 277 277 269 274 278 280 278 277 280 276 268 268 266 260 250 251 254 256 256 251 249 251 252 260 256 243 233 228 235 245 251 254 257 256 255 260 269 275 276 274 266 256 244 200 194 207 205 198 178 173 174 171 172 170 172 186 169 186 187 194 186 168 127 169 177 178 178 178 175 174 169 171 160 154 150 151
3 356 360 0 356 347 339 331 325 314 276 277 275 270 272 274 274 275 274 275 275 275 266 261 256 254 257 259 257 247 240 241 238 243 245 234 229 234 240 244 246 248 253 257 260 267 274 274 269 259 249 239 209 187 198 203 196 172 171 170 169 168 169 168 171 175 189 216 179 177 120 133 164 178 173 175 179 171 173 175 170 157 148 149 164
12 13 14 8 4 359 351 343 337 327 318 292 268 267 267 264 264 267 270 274 275 274 270 264 255 252 255 257 252 243 232 232 233 232 231 231 231 235 235 238 242 243 248 253 260 265 269 270 265 254 248 221 207 194 195 202 191 176 171 168 162 167 166 163 174 177 188 188 175 144 135 147 177 179 180 173 184 174 175 176 167 149 149 156 160
15 17 17 11 6 1 357 350 344 339 328 318 316 302 275 259 262 258 261 263 265 268 270 268 265 261 254 250 248 241 232 233 237 231 232 232 229 229 234 240 245 246 245 248 254 261 264 265 262 252 233 210 202 200 197 198 193 184 173 173 169 165 162 173 174 185 178 185 164 145 145 157 169 182 182 174 180 174 169 180 171 150 154 153 145
18 18 16 16 7 3 2 356 353 346 342 335 322 304 311 310 275 267 265 261 260 260 262 263 263 263 262 253 246 241 236 230 229 231 233 232 228 223 224 237 241 244 247 247 250 257 260 259 257 243 225 208 202 200 198 196 192 185 175 171 169 164 163 172 182 196 195 188 181 149 155 158 165 183 184 171 184 172 168 178 159 154 155 148 145
15 15 16 19 6 7 1 356 353 348 340 335 325 318 305 298 303 274 261 262 260 260 258 260 260 260 262 259 250 241 235 231 232 230 232 233 230 225 226 229 233 235 240 243 244 246 255 254 249 236 218 207 202 198 193 194 192 176 172 170 165 165 168 174 177 187 187 180 169 155 157 160 166 181 184 188 177 167 166 166 157 157 150 147 143
10 9 6 16 5 3 2 357 349 352 346 336 328 325 317 305 290 294 277 250 255 256 260 258 252 248 249 251 245 236 229 230 227 219 225 226 227 224 224 226 227 229 232 237 239 244 249 250 246 228 215 207 201 197 196 197 186 174 167 163 162 167 165 171 189 178 182 174 164 162 162 167 167 175 175 183 183 170 164 162 158 158 153 150 144
9 7 3 11 6 1 359 360 354 352 352 342 334 325 322 320 316 305 294 283 253 243 246 247 249 248 247 240 238 234 230 229 228 223 212 214 215 216 219 219 222 224 227 229 236 240 242 244 244 227 213 206 196 203 181 182 181 167 157 166 168 169 168 176 194 170 175 175 168 166 159 161 169 172 178 174 175 164 167 165 163 154 148 144 143
8 6 360 7 4 2 357 358 354 355 354 348 340 335 328 328 320 315 311 305 300 287 248 243 244 245 246 245 237 235 236 232 229 229 224 210 212 209 211 213 213 217 218 222 230 233 236 239 242 224 212 206 193 191 173 176 169 164 166 167 168 196 185 179 183 172 167 166 162 167 162 161 169 175 174 176 174 169 170 164 161 150 147 151 146
0 357 2 7 3 1 357 358 352 356 356 348 341 337 331 321 311 309 303 302 300 299 299 280 252 243 243 244 239 235 238 241 236 224 216 212 200 199 204 203 203 207 204 212 211 213 214 216 226 223 209 203 198 182 171 171 171 171 174 172 175 183 198 185 166 158 154 153 159 166 171 171 173 176 174 178 176 169 171 158 151 149 149 152 142
355 5 4 2 1 358 360 358 353 357 356 346 338 334 338 336 332 324 319 310 305 301 300 302 296 271 254 247 245 244 238 237 238 234 220 212 201 190 192 196 198 202 190 207 206 206 201 198 203 214 210 192 185 180 175 171 174 173 169 176 177 182 184 178 166 153 155 153 157 163 176 177 173 175 175 184 176 172 165 155 153 151 149 146 141
358 3 3 3 356 355 358 360 351 359 353 345 340 342 336 333 331 328 324 318 309 304 300 296 296 298 286 268 256 246 241 235 229 232 228 211 209 195 193 195 201 201 191 193 196 193 171 177 184 189 186 185 193 175 171 171 172 169 167 166 172 166 154 157 160 156 149 151 156 163 168 172 175 173 173 177 170 166 160 161 154 149 149 145 141
356 1 5 1 353 355 350 1 347 0 350 345 343 342 339 335 327 327 326 321 321 316 308 297 294 292 295 287 266 256 252 250 234 225 218 224 223 227 203 196 194 201 195 178 175 166 160 164 166 170 179 186 179 179 169 165 160 162 164 165 159 168 154 159 171 152 143 151 161 164 156 158 171 176 178 183 168 161 161 158 154 153 152 147 144
3 3 358 356 352 353 348 357 344 359 351 344 340 339 338 331 330 329 324 318 313 306 304 303 296 292 286 288 285 271 260 244 263 251 222 226 223 230 226 200 193 194 180 172 165 160 164 169 170 163 172 165 175 183 165 161 157 160 152 156 155 154 143 147 146 137 135 141 146 162 157 157 163 173 176 177 162 154 152 146 145 150 151 147 144
349 358 353 355 348 350 348 356 342 354 346 342 338 338 337 331 334 330 322 317 312 310 308 305 300 296 291 288 288 280 266 258 245 266 288 258 268 249 238 206 191 185 168 170 170 161 163 163 161 162 150 149 134 201 172 164 163 160 154 157 149 153 147 144 136 138 135 133 132 153 152 153 154 176 171 165 157 156 152 150 152 153 153 156 152
340 1 353 352 348 348 347 349 340 345 340 341 334 339 332 331 331 329 325 319 315 312 308 302 299 295 292 290 289 288 279 272 252 243 232 253 248 244 249 224 187 186 166 170 171 164 164 165 167 164 154 142 143 132 206 166 165 158 152 151 147 144 142 137 122 122 125 128 132 137 133 134 143 157 188 170 165 164 157 156 157 157 153 151 151
350 356 351 346 348 349 350 348 347 346 344 341 338 337 333 329 327 326 326 327 324 315 309 305 302 299 296 292 289 285 276 266 271 261 242 219 232 236 240 239 196 186 168 166 169 164 167 166 166 159 149 137 129 126 92 203 160 156 152 143 143 143 134 125 117 118 121 129 135 132 129 118 145 161 182 175 170 174 168 166 162 156 152 153 153
342 345 347 349 349 351 349 345 344 341 342 335 334 331 328 327 326 326 326 322 320 320 318 316 310 306 302 296 290 286 282 277 267 262 262 256 232 240 263 255 229 183 166 170 164 160 155 153 160 166 152 136 138 143 130 61 121 137 141 137 145 130 117 109 119 121 120 120 126 125 124 126 123 132 164 182 165 171 163 160 163 159 160 155 155
338 339 344 352 348 346 347 340 341 339 337 332 330 328 326 322 319 321 322 319 319 322 321 319 317 312 307 302 297 292 289 280 272 268 253 250 251 245 237 258 248 208 167 167 164 160 158 159 161 155 161 153 154 157 147 144 113 81 123 140 142 126 116 112 118 119 121 124 128 124 123 127 123 131 154 181 158 151 152 149 163 164 159 155 154
339 344 347 348 344 344 346 339 339 335 331 332 327 323 319 316 317 321 318 315 321 319 317 315 312 314 314 312 312 308 301 292 280 268 260 250 246 246 236 236 243 205 185 176 165 161 159 162 160 168 172 168 164 164 163 160 151 148 161 152 136 127 131 140 132 120 124 125 127 128 138 136 135 130 146 140 158 145 148 155 165 157 160 153 154
341 339 337 343 341 343 343 339 335 332 331 331 327 322 318 313 310 312 313 315 317 316 314 310 310 311 311 310 309 307 301 296 288 277 265 254 245 246 248 224 236 227 191 176 170 163 161 161 169 170 167 168 161 163 168 164 172 153 150 139 132 132 137 140 141 142 146 141 140 135 145 148 148 137 152 144 156 169 175 172 169 171 153 152 154
333 339 342 343 337 338 340 338 335 329 328 327 322 317 313 312 309 307 308 310 312 313 310 309 307 309 310 305 303 304 308 306 297 287 276 260 246 238 240 241 230 218 191 178 175 168 162 163 172 178 184 167 171 170 167 162 158 155 143 142 141 133 133 141 142 146 141 152 150 149 151 153 144 143 144 150 159 157 171 165 158 155 149 149 152
329 333 339 332 322 322 327 324 320 314 315 314 314 313 312 309 305 303 301 302 305 302 306 306 304 304 305 305 310 311 308 305 301 296 287 268 252 241 234 227 228 224 199 176 181 171 167 165 171 178 181 177 170 168 167 161 156 149 141 134 135 137 141 138 135 136 148 152 153 153 159 150 149 154 150 148 143 148 138 141 143 146 146 152 155
323 320 326 319 310 315 317 319 313 312 315 313 308 305 302 302 301 298 293 294 293 297 300 296 297 299 302 307 308 306 307 307 306 303 298 283 260 245 235 226 220 210 198 181 178 174 170 170 170 175 181 182 172 168 167 165 155 148 142 139 139 141 141 133 133 138 142 150 152 151 151 153 150 153 151 148 145 142 141 139 141 146 152 155 157
324 333 333 328 325 322 319 313 309 310 310 309 309 307 306 305 305 304 301 297 292 292 293 288 288 293 298 302 301 305 314 312 310 307 304 294 271 251 235 227 220 215 196 181 177 175 173 169 174 172 171 171 168 158 149 138 116 114 113 106 116 138 135 136 139 140 142 152 157 153 159 156 149 154 154 152 146 144 141 143 143 149 150 155 150
331 334 328 324 327 326 323 320 319 315 314 314 311 311 310 306 301 300 299 296 296 294 285 283 284 284 292 293 295 309 308 307 308 310 310 308 293 264 245 228 215 215 208 185 179 174 176 174 173 173 170 170 170 161 160 146 138 122 103 100 81 68 114 129 145 142 154 153 159 157 159 158 159 155 156 145 153 143 140 144 144 143 145 146 147
325 327 324 323 327 324 322 320 320 318 315 312 309 304 302 303 302 301 302 301 300 294 288 282 281 285 283 281 290 301 305 307 306 304 304 305 305 296 264 234 216 213 204 188 177 172 176 178 169 171 182 173 170 165 161 147 156 152 144 126 94 73 62 96 126 153 157 162 165 158 162 163 163 157 152 151 153 142 146 142 145 148 144 143 143
321 327 326 330 327 324 319 317 313 312 311 310 308 303 299 295 295 295 297 296 291 288 284 284 280 278 275 274 286 298 303 306 306 303 302 302 303 305 291 248 218 222 214 181 176 177 177 179 174 170 170 184 161 167 165 174 159 152 137 123 145 130 80 82 48 63 85 170 172 161 161 164 170 157 158 153 154 151 153 145 144 147 140 135 138
327 323 328 325 319 315 313 309 307 307 308 309 304 296 292 291 289 286 285 282 288 290 287 281 275 277 274 271 283 286 296 301 303 304 300 299 305 312 308 278 224 213 206 199 177 178 179 179 178 173 166 164 164 175 179 180 157 147 158 169 153 143 134 196 154 108 16 149 186 171 165 164 170 156 168 158 156 151 156 154 150 153 150 144 141
327 327 328 324 318 313 310 308 311 313 313 310 306 301 296 294 292 289 283 283 278 280 288 287 282 280 278 274 274 283 290 295 300 302 303 303 308 312 312 300 253 227 219 200 184 182 179 178 179 173 174 169 168 167 178 180 181 177 145 113 85 162 196 158 122 5 28 125 225 187 174 167 165 163 164 162 150 155 157 157 154 152 153 150 147
326 324 320 316 313 311 311 318 318 315 311 307 304 303 299 299 303 305 304 296 287 282 279 285 289 286 280 276 273 270 279 289 294 299 301 303 302 304 304 306 289 244 216 218 200 177 177 179 182 179 179 178 166 167 172 183 182 190 187 168 166 172 155 158 157 189 65 350 337 147 182 175 169 161 164 161 158 156 161 158 155 153 151 153 153
323 319 317 314 311 315 320 317 315 311 307 304 305 306 302 301 300 300 297 296 293 284 279 279 280 283 280 280 281 279 274 280 292 294 301 303 300 297 295 296 303 280 242 215 206 193 186 183 181 183 179 174 171 167 169 178 177 196 197 233 18 29 162 145 182 111 137 267 20 129 182 186 181 164 169 164 163 156 162 160 159 155 153 154 155
322 322 319 316 323 324 319 317 315 309 305 303 305 308 303 299 299 298 293 291 291 291 291 285 282 283 284 281 277 275 269 268 284 292 298 297 295 292 290 291 299 303 284 238 208 201 197 189 184 181 178 177 176 174 174 170 172 189 194 160 78 108 160 180 156 163 170 161 197 329 349 133 201 177 166 169 163 163 157 158 160 157 152 155 153
326 323 321 324 326 324 319 313 310 308 306 305 308 308 307 308 306 299 292 289 291 291 292 287 282 280 280 282 278 272 268 262 264 285 289 293 291 286 284 285 291 298 299 269 225 202 197 189 186 182 184 184 182 178 169 175 183 179 169 163 124 134 158 175 187 161 156 165 166 169 166 75 114 189 170 174 166 165 160 158 162 160 154 155 156
324 321 323 325 321 316 313 314 314 312 308 309 315 326 335 332 324 319 318 313 311 304 298 290 282 279 277 276 273 270 262 261 260 268 283 286 290 291 287 283 286 294 299 289 264 214 194 191 187 186 185 183 186 180 177 178 183 180 176 162 152 143 146 142 163 169 166 165 162 180 171 164 170 202 163 165 156 164 158 157 162 159 160 161 157
322 327 328 323 319 318 319 322 320 315 316 326 331 321 316 318 315 310 307 303 301 300 299 294 281 277 275 277 275 269 257 249 248 260 266 281 288 290 290 287 283 285 286 294 277 243 206 189 188 188 185 184 184 181 182 177 179 179 178 177 171 167 169 176 172 175 162 133 112 158 165 173 165 150 188 186 155 155 155 154 156 165 163 164 160